User: anonymous
Location: Unspecified
(0.0000°N, 0.0000°E)
Time: 19:40:46
(UTC+02:00)
Language:

Cosmos 1315 Rocket - Orbit

View from above orbital plane
View from above orbital plane
View from above satellite
View from above satellite

Ground track
Ground track

The orbit data is extracted from the following two-line orbital elements,

1 12904U 81103B   14233.47986383  .00000617  00000-0  44243-4 0  5665
2 12904 081.1803 011.1509 0029616 210.6243 149.3251 15.02641078337853
Epoch (UTC): 21 August 2014 11:31:00
Eccentricity: 0.0029616
inclination: 81.1803°
perigee height: 538 km
apogee height: 579 km
right ascension of ascending node: 11.1509°
argument of perigee: 210.6243°
revolutions per day: 15.02641078
mean anomaly at epoch: 149.3251°
orbit number at epoch: 33785

The dashed part of the orbit path shows where the satellite is in the earth's shadow,  

DLR